TOURFACTS.DK  
Stats and Facts from Tour de France.

Tour de France 2018 starts in 320 days
  Riders   Stages   Teams   Summits   Yearly  


 
Search by year

 2017 - St. 21:  14824 starters.
  5131 different riders.
  634 teams.
  2232 stages.
  454 restdays.
  439589.60 km.
  5653 abandonnees.


Top 3
Christopher Froome86:20:55
Rigoberto Uran86:21:49
Romain Bardet86:23:15
Warren Barguil169 pt.
Primoz Roglic80 pt.
Thomas De Gendt64 pt.
Michael Matthews359 pt.
André Greipel234 pt.
Edvald Boasson Hagen220 pt.
Simon Yates86:27:09
Louis Meintjes86:29:15
Emanuel Buchmann86:54:16
Facts from Tour de France 2017
  |   Stages.  |   Stage winners.  |   Days in yellow  |   Average speed.  |   Route.  |   Teams.  |   All riders.  |   Rookies.  |   Withdrawls.  |  

  |   GC.  |   Polka  |   Green  |   White  |   Summits. (In tour)  |   Summits. (Points)  |   Miscellaneous.  |  

Stage 18 on 20 - 07 - 2017
         Owning:    Christopher Froome      Warren Barguil      Michael Matthews      Simon Yates  

Pick a stage:  1 2 3 4 5 6 7 8 9 10 11 12 13 14 15 16 17 18 19 20 21
  BriançonIzoard | Dist: 179.50 km.
Cat: 3Côte des Demoiselles CoifféesBELThomas De Gendt
2 points
 
Cat: 1Col de VarsKAZAlexey Lutsenko
10 points
 
Cat: HCol de l'IzoardFRAWarren Barguil
40 points
 

Average speed for all riders in stage:  36,058 km./hr.
    Place:Name:Team:Time:Km/h:
FRAWarren BarguilDEUTeam Sunweb04:40:33  +  00:00:00=38,389 
COLDarwin AtapumaUAEUAE Team Emirates04:40:53  +  00:00:20=38,343 
FRARomain BardetFRAAg2r La Mondiale04:40:53  +  00:00:20=38,343 
4 KENChristopher FroomeGBRSky Procycling04:40:53  +  00:00:20=38,343 
5 COLRigoberto UranUSACannondale-Drapac Pro Cycling ..04:40:55  +  00:00:22=38,339 
6 ESPMikel Landa MeanaGBRSky Procycling04:41:05  +  00:00:32=38,316 
7 RSALouis MeintjesUAEUAE Team Emirates04:41:10  +  00:00:37=38,305 
8 ENGDaniel MartinBELQuick-Step Floors04:41:12  +  00:00:39=38,300 
9 ENGSimon YatesAUSOrica - Scott04:41:32  +  00:00:59=38,255 
10 ESPAlberto ContadorUSATrek – Segafredo04:41:42  +  00:01:09=38,232 
11 COLNairo QuintanaESPMovistar Team04:41:51  +  00:01:18=38,212 
12 COLCarlos Alberto BetancurESPMovistar Team04:41:55  +  00:01:22=38,203 
13 ITAFabio AruKAZAstana Pro Team04:41:55  +  00:01:22=38,203 
14 FRATony GallopinBELLotto Soudal04:42:10  +  00:01:37=38,169 
15 FRABrice FeilluFRAFortuneo - Vital Concept04:42:27  +  00:01:54=38,131 
16 ESPMikel NieveGBRSky Procycling04:42:48  +  00:02:15=38,083 
17 KAZAlexey LutsenkoKAZAstana Pro Team04:43:27  +  00:02:54=37,996 
18 USAAndrew TalanskyUSACannondale-Drapac Pro Cycling ..04:43:34  +  00:03:01=37,980 
19 NEDBauke MollemaUSATrek – Segafredo04:43:34  +  00:03:01=37,980 
20 BELSerge PauwelsZAFDimension Data04:43:37  +  00:03:04=37,974 
21 FRAAlexis VuillermozFRAAg2r La Mondiale04:43:50  +  00:03:17=37,945 
22 BELTiesj BenootBELLotto Soudal04:43:56  +  00:03:23=37,931 
23 NEDMarco MinnaardBELWanty – Groupe Gobert04:44:07  +  00:03:34=37,907 
24 KAZBakhtiyar KozhatayevKAZAstana Pro Team04:44:22  +  00:03:49=37,874 
25 ESPDaniel NavarroFRACofidis – Solutions Crédits04:44:27  +  00:03:54=37,863 
26 FRARomain HardyFRAFortuneo - Vital Concept04:44:27  +  00:03:54=37,863 
27 ITADamiano CarusoUSABMC Racing Team04:44:31  +  00:03:58=37,854 
28 CZERoman KreuzigerAUSOrica - Scott04:44:41  +  00:04:08=37,832 
29 BELJan BakelantsFRAAg2r La Mondiale04:44:46  +  00:04:13=37,820 
30 FRAAmaël MoinardUSABMC Racing Team04:44:48  +  00:04:15=37,816 
31 GEREmanuel BuchmannDEUBora–Hansgrohe04:44:48  +  00:04:15=37,816 
32 FRARudy MolardFRAFDJ04:45:13  +  00:04:40=37,761 
33 FRANicolas RocheUSABMC Racing Team04:45:32  +  00:04:59=37,719 
34 GERGianluca BrambillaBELQuick-Step Floors04:46:54  +  00:06:21=37,539 
35 ARGEduardo SepulvedaFRAFortuneo - Vital Concept04:47:14  +  00:06:41=37,496 
36 RSADaryl ImpeyAUSOrica - Scott04:47:14  +  00:06:41=37,496 
37 HRVRobert KiserlovskiCHETeam Katusha - Alpecin04:47:14  +  00:06:41=37,496 
38 SUIMathias FrankFRAAg2r La Mondiale04:47:14  +  00:06:41=37,496 
39 FRAPierre RollandUSACannondale-Drapac Pro Cycling ..04:47:14  +  00:06:41=37,496 
40 FRAGuillaume MartinBELWanty – Groupe Gobert04:47:53  +  00:07:20=37,411 
41 BELThomas DegandBELWanty – Groupe Gobert04:48:14  +  00:07:41=37,366 
42 COLSergio Luis HenaoGBRSky Procycling04:48:45  +  00:08:12=37,299 
43 SLOJanez BrajkovicBHRBahrain-Merida04:49:03  +  00:08:30=37,260 
44 ETHTsgabu Gebremaryan GrmayBHRBahrain-Merida04:49:03  +  00:08:30=37,260 
45 NEDMaurits LammertinkCHETeam Katusha - Alpecin04:49:16  +  00:08:43=37,232 
46 ITADiego UlissiUAEUAE Team Emirates04:49:21  +  00:08:48=37,221 
47 GERSimon GeschkeDEUTeam Sunweb04:50:00  +  00:09:27=37,138 
48 FRASylvain ChavanelFRADirect Energie04:51:07  +  00:10:34=36,995 
49 FRAThomas VoecklerFRADirect Energie04:51:07  +  00:10:34=36,995 
50 HRVKristijan DurasekUAEUAE Team Emirates04:51:19  +  00:10:46=36,970 
51 FRARomain SicardFRADirect Energie04:51:30  +  00:10:57=36,947 
52 KAZAndrey ZeitsKAZAstana Pro Team04:52:03  +  00:11:30=36,877 
53 LUXBen GastauerFRAAg2r La Mondiale04:52:10  +  00:11:37=36,863 
54 COLJarlinson Pantano GomezUSATrek – Segafredo04:52:34  +  00:12:01=36,812 
55 DENMichael ValgrenKAZAstana Pro Team04:52:34  +  00:12:01=36,812 
56 ESPHaimar ZubeldiaUSATrek – Segafredo04:52:34  +  00:12:01=36,812 
57 NEDLaurens ten DamDEUTeam Sunweb04:52:40  +  00:12:07=36,800 
58 BELThomas De GendtBELLotto Soudal04:53:21  +  00:12:48=36,714 
59 NEDTimo RoosenNLDTeam Lotto NL - Jumbo04:53:33  +  00:13:00=36,689 
60 FRACyril GautierFRAAg2r La Mondiale04:54:13  +  00:13:40=36,606 
61 CZEZdenek StybarBELQuick-Step Floors04:54:14  +  00:13:41=36,604 
62 POLMichal KwiatkowskiGBRSky Procycling04:54:14  +  00:13:41=36,604 
63 SUIMichael SchärUSABMC Racing Team04:54:14  +  00:13:41=36,604 
64 ESPLuis Angel MateFRACofidis – Solutions Crédits04:55:13  +  00:14:40=36,482 
65 FRANicolas EdetFRACofidis – Solutions Crédits04:55:13  +  00:14:40=36,482 
66 AUSDamien HowsonAUSOrica - Scott04:56:43  +  00:16:10=36,297 
67 AUSSimon ClarkeUSACannondale-Drapac Pro Cycling ..04:56:43  +  00:16:10=36,297 
68 GERTony MartinCHETeam Katusha - Alpecin04:57:12  +  00:16:39=36,238 
69 BELJürgen RoelandtsBELLotto Soudal04:57:25  +  00:16:52=36,212 
70 FRAAxel DomontFRAAg2r La Mondiale04:58:15  +  00:17:42=36,111 
71 BELOliver NaesenFRAAg2r La Mondiale04:58:15  +  00:17:42=36,111 
72 FRALaurent PichonFRAFortuneo - Vital Concept04:58:15  +  00:17:42=36,111 
73 BELJens KeukeleireAUSOrica - Scott04:58:15  +  00:17:42=36,111 
74 NEDKoen De KortUSATrek – Segafredo04:58:15  +  00:17:42=36,111 
75 GERJasha SütterlinESPMovistar Team04:58:15  +  00:17:42=36,111 
76 PORTiago PintoCHETeam Katusha - Alpecin04:58:15  +  00:17:42=36,111 
77 DENLars BakBELLotto Soudal04:58:15  +  00:17:42=36,111 
78 FRAAngelo TulikFRADirect Energie04:58:23  +  00:17:50=36,095 
79 GERPaul MartensNLDTeam Lotto NL - Jumbo04:58:59  +  00:18:26=36,022 
80 FRAElie GesbertFRAFortuneo - Vital Concept04:58:59  +  00:18:26=36,022 
81 FRAMaxime BouetFRAFortuneo - Vital Concept04:58:59  +  00:18:26=36,022 
82 SUIDanilo WyssUSABMC Racing Team04:59:17  +  00:18:44=35,986 
83 BELGreg Van AvermaetUSABMC Racing Team04:59:17  +  00:18:44=35,986 
84 FRAPierre-Luc PérichonFRAFortuneo - Vital Concept05:00:15  +  00:19:42=35,870 
85 FRAFlorian VachonFRAFortuneo - Vital Concept05:00:15  +  00:19:42=35,870 
86 KAZDmitriy GruzdevKAZAstana Pro Team05:00:36  +  00:20:03=35,828 
87 ITAMatteo BonoUAEUAE Team Emirates05:02:52  +  00:22:19=35,560 
88 COLJohan Esteban ChavesAUSOrica - Scott05:02:52  +  00:22:19=35,560 
89 USANathan BrownUSACannondale-Drapac Pro Cycling ..05:03:16  +  00:22:43=35,513 
90 BLRVasil KiryienkaGBRSky Procycling05:04:23  +  00:23:50=35,383 
91 UKRAndriy GrivkoKAZAstana Pro Team05:04:23  +  00:23:50=35,383 
92 NZLDion SmithBELWanty – Groupe Gobert05:04:23  +  00:23:50=35,383 
93 NZLJack BauerBELQuick-Step Floors05:04:23  +  00:23:50=35,383 
94 ENGBen SwiftUAEUAE Team Emirates05:04:23  +  00:23:50=35,383 
95 ENGStephen CummingsZAFDimension Data05:04:23  +  00:23:50=35,383 
96 ESPImanol ErvitiESPMovistar Team05:04:23  +  00:23:50=35,383 
97 BELGuillaume Van KeirsbulckBELWanty – Groupe Gobert05:04:23  +  00:23:50=35,383 
98 BELPieter VanspeybrouckBELWanty – Groupe Gobert05:04:23  +  00:23:50=35,383 
99 CRCAndrey AmadorESPMovistar Team05:04:23  +  00:23:50=35,383 
100 FRAPerrig QuemeneurFRADirect Energie05:04:23  +  00:23:50=35,383 
101 FRAPierre-Roger LatourFRAAg2r La Mondiale05:04:23  +  00:23:50=35,383 
102 FRALilian CalmejaneFRADirect Energie05:04:23  +  00:23:50=35,383 
103 ESPJesus HerradaESPMovistar Team05:04:23  +  00:23:50=35,383 
104 NEDDylan Van BaarleUSACannondale-Drapac Pro Cycling ..05:04:23  +  00:23:50=35,383 
105 JPNYukiya ArashiroBHRBahrain-Merida05:04:23  +  00:23:50=35,383 
106 BELDimitri ClaeysFRACofidis – Solutions Crédits05:04:52  +  00:24:19=35,327 
107 GERNils PolittCHETeam Katusha - Alpecin05:04:52  +  00:24:19=35,327 
108 ITAMarco MarcatoUAEUAE Team Emirates05:06:19  +  00:25:46=35,160 
109 ESPJavier Moreno BazánBHRBahrain-Merida05:06:19  +  00:25:46=35,160 
110 CZEOndrej CinkBHRBahrain-Merida05:06:19  +  00:25:46=35,160 
111 ITASonny ColbrelliBHRBahrain-Merida05:06:21  +  00:25:48=35,156 
112 ITAAlessandro De MarchiUSABMC Racing Team05:06:38  +  00:26:05=35,123 
113 SUIStefan KüngUSABMC Racing Team05:06:59  +  00:26:26=35,083 
114 SLOPrimoz RoglicNLDTeam Lotto NL - Jumbo05:06:59  +  00:26:26=35,083 
115 ITAAlberto BettiolUSACannondale-Drapac Pro Cycling ..05:08:01  +  00:27:28=34,966 
116 GERChristian KneesGBRSky Procycling05:09:06  +  00:28:33=34,843 
117 NEDRamon SinkeldamDEUTeam Sunweb05:09:06  +  00:28:33=34,843 
118 AUSMichael MatthewsDEUTeam Sunweb05:09:06  +  00:28:33=34,843 
119 BELJulien VermoteBELQuick-Step Floors05:09:06  +  00:28:33=34,843 
120 ITAFabio SabatiniBELQuick-Step Floors05:09:06  +  00:28:33=34,843 
121 FRAYoann OffredoBELWanty – Groupe Gobert05:09:06  +  00:28:33=34,843 
122 AUSJay McCarthyDEUBora–Hansgrohe05:09:06  +  00:28:33=34,843 
123 WALLuke RoweGBRSky Procycling05:09:06  +  00:28:33=34,843 
124 ENGScott ThwaitesZAFDimension Data05:09:06  +  00:28:33=34,843 
125 NEDRoy CurversDEUTeam Sunweb05:09:06  +  00:28:33=34,843 
126 SLOGrega BoleBHRBahrain-Merida05:09:06  +  00:28:33=34,843 
127 BELFrederik BackaertBELWanty – Groupe Gobert05:09:06  +  00:28:33=34,843 
128 AUSAdam HansenBELLotto Soudal05:09:06  +  00:28:33=34,843 
129 SUIReto HollensteinCHETeam Katusha - Alpecin05:09:06  +  00:28:33=34,843 
130 NZLPaddy BevinUSACannondale-Drapac Pro Cycling ..05:09:06  +  00:28:33=34,843 
131 FRAOlivier Le GacFRAFDJ05:09:06  +  00:28:33=34,843 
132 GERRobert WagnerNLDTeam Lotto NL - Jumbo05:09:06  +  00:28:33=34,843 
133 ITAAndrea PasqualonBELWanty – Groupe Gobert05:09:06  +  00:28:33=34,843 
134 GERAndré GreipelBELLotto Soudal05:09:06  +  00:28:33=34,843 
135 RSAReinardt Janse Van RensburgZAFDimension Data05:09:06  +  00:28:33=34,843 
136 FRAFlorian SénéchalFRACofidis – Solutions Crédits05:09:06  +  00:28:33=34,843 
137 SUIMichael AlbasiniAUSOrica - Scott05:09:06  +  00:28:33=34,843 
138 NOREdvald Boasson HagenZAFDimension Data05:09:06  +  00:28:33=34,843 
139 POLPawel PoljanskiDEUBora–Hansgrohe05:09:06  +  00:28:33=34,843 
140 DDRRüdiger SeligDEUBora–Hansgrohe05:09:06  +  00:28:33=34,843 
141 POLMaciej BodnarDEUBora–Hansgrohe05:09:06  +  00:28:33=34,843 
142 NORVegard Stake LaengenUAEUAE Team Emirates05:09:06  +  00:28:33=34,843 
143 NEDDylan GroenewegenNLDTeam Lotto NL - Jumbo05:09:06  +  00:28:33=34,843 
144 ESPJonathan CastroviejoESPMovistar Team05:09:06  +  00:28:33=34,843 
145 NEDTom LeezerNLDTeam Lotto NL - Jumbo05:09:06  +  00:28:33=34,843 
146 RSAJaco VenterZAFDimension Data05:09:06  +  00:28:33=34,843 
147 AUSMathew HaymanAUSOrica - Scott05:09:06  +  00:28:33=34,843 
148 USATaylor PhinneyUSACannondale-Drapac Pro Cycling ..05:09:06  +  00:28:33=34,843 
149 ITADaniele BennatiESPMovistar Team05:09:06  +  00:28:33=34,843 
150 NEDAlbert TimmerDEUTeam Sunweb05:09:06  +  00:28:33=34,843 
151 NEDMike TeunissenDEUTeam Sunweb05:09:06  +  00:28:33=34,843 
152 GERNikias ArndtDEUTeam Sunweb05:09:06  +  00:28:33=34,843 
153 GERRick ZabelCHETeam Katusha - Alpecin05:09:06  +  00:28:33=34,843 
154 SLOBorut BozicBHRBahrain-Merida05:09:06  +  00:28:33=34,843 
155 FRAYohann GèneFRADirect Energie05:09:35  +  00:29:02=34,789 
156 FRAThomas BoudatFRADirect Energie05:09:51  +  00:29:18=34,759 
157 ESPMarkel IrizarUSATrek – Segafredo05:10:29  +  00:29:56=34,688 
158 AUTBernhard EiselZAFDimension Data05:10:29  +  00:29:56=34,688 
159 GERJohn DegenkolbUSATrek – Segafredo05:10:29  +  00:29:56=34,688 
160 AUTMarco HallerCHETeam Katusha - Alpecin05:10:29  +  00:29:56=34,688 
161 AUTMichael GoglUSATrek – Segafredo05:10:29  +  00:29:56=34,688 
162 NORAlexander KristoffCHETeam Katusha - Alpecin05:10:29  +  00:29:56=34,688 
163 FRAAdrien PetitFRADirect Energie05:10:29  +  00:29:56=34,688 
164 GERMarcus BurghardtDEUBora–Hansgrohe05:11:16  +  00:30:43=34,601 
165 ITADavide CimolaiFRAFDJ05:12:13  +  00:31:40=34,495 
166 FRAJulien SimonFRACofidis – Solutions Crédits05:12:13  +  00:31:40=34,495 
167 FRANacer BouhanniFRACofidis – Solutions Crédits05:12:13  +  00:31:40=34,495 
168 FRACyril LemoineFRACofidis – Solutions Crédits05:12:13  +  00:31:40=34,495 
169 FRAChristophe LaporteFRACofidis – Solutions Crédits05:12:30  +  00:31:57=34,464 


Todays birthdays.

1878  Jean Novo
1883  Jules Chabas
1890  Ange Aubry
1893  Roger Marye
1913  Paul Maye
1914  Lucien Vlaemynck
1915  Alphonse Antoine
1932  Rolf Graf
1953  Julio Rubiano
1959  Jos Haex
1959  Gerard Veldscholten
1963  Pablo Moreno
1964  Juan Castillo
1977  Iban Mayo